User: anonymous   Login
Location: Fort Wayne
(41.1310°N, 85.1290°W)
Time: 21:18:17
(UTC-04:00)
Language:

OAO 2 Rocket - Orbit

View from above orbital plane
View from above orbital plane
View from above satellite
View from above satellite

Ground track
Ground track

The orbit data is extracted from the following two-line orbital elements,

1  3598U 68110B   17118.84928163 +.00000120 +00000-0 +31917-4 0  9998
2  3598 034.9935 255.8192 0049291 188.4847 171.5015 14.54303641538385
Epoch (UTC): 28 April 2017 20:22:57
Eccentricity: 0.0049291
inclination: 34.9935°
perigee height: 676 km
apogee height: 746 km
right ascension of ascending node: 255.8192°
argument of perigee: 188.4847°
revolutions per day: 14.54303641
mean anomaly at epoch: 171.5015°
orbit number at epoch: 53838

The dashed part of the orbit path shows where the satellite is in the earth's shadow,  

DLR